Year,Month,Day,Hour,Minute,Value (Times are PST for windspeed in km/hr)
2017,11,20,10,18,4.80
2017,11,20,10,19,3.70
2017,11,20,10,20,0.60
2017,11,20,10,21,0.00
2017,11,20,10,22,0.00
2017,11,20,10,23,0.20
2017,11,20,10,24,0.00
2017,11,20,10,25,0.10
2017,11,20,10,26,2.40
2017,11,20,10,27,0.10
2017,11,20,10,28,0.00
2017,11,20,10,29,0.10
2017,11,20,10,30,0.00
2017,11,20,10,31,1.80
2017,11,20,10,32,2.10
2017,11,20,10,33,0.70
2017,11,20,10,34,0.10
2017,11,20,10,35,0.10
2017,11,20,10,36,0.00
2017,11,20,10,37,0.00
2017,11,20,10,38,0.00
2017,11,20,10,39,0.00
2017,11,20,10,40,0.00
2017,11,20,10,41,0.00
2017,11,20,10,42,0.00
2017,11,20,10,43,0.00
2017,11,20,10,44,0.00
2017,11,20,10,45,0.00
2017,11,20,10,46,0.00
2017,11,20,10,47,0.00
2017,11,20,10,48,0.10
2017,11,20,10,49,0.50
2017,11,20,10,50,0.10
2017,11,20,10,51,0.70
2017,11,20,10,52,0.90
2017,11,20,10,53,1.80
2017,11,20,10,54,0.00
2017,11,20,10,55,0.00
2017,11,20,10,56,1.60
2017,11,20,10,57,2.50
2017,11,20,10,58,1.10
2017,11,20,10,59,1.00
2017,11,20,11,00,0.20
2017,11,20,11,01,1.80
2017,11,20,11,02,3.40
2017,11,20,11,03,6.30
2017,11,20,11,04,3.30
2017,11,20,11,05,3.40
2017,11,20,11,06,1.80
2017,11,20,11,07,0.00
2017,11,20,11,08,0.00
2017,11,20,11,09,0.00
2017,11,20,11,10,0.00
2017,11,20,11,11,0.00
2017,11,20,11,12,0.00
2017,11,20,11,13,0.90
2017,11,20,11,14,3.40
2017,11,20,11,15,0.00
2017,11,20,11,16,1.40
2017,11,20,11,17,1.10
2017,11,20,11,18,0.00
2017,11,20,11,19,0.00
2017,11,20,11,20,0.00
2017,11,20,11,21,0.80
2017,11,20,11,22,0.10
2017,11,20,11,23,0.20
2017,11,20,11,24,0.20
2017,11,20,11,25,0.00
2017,11,20,11,26,0.90
2017,11,20,11,27,2.60
2017,11,20,11,28,0.10
2017,11,20,11,29,0.00
2017,11,20,11,30,0.60
2017,11,20,11,31,1.20
2017,11,20,11,32,1.70
2017,11,20,11,33,1.10
2017,11,20,11,34,4.20
2017,11,20,11,35,1.10
2017,11,20,11,36,2.10
2017,11,20,11,37,1.00
2017,11,20,11,38,1.40
2017,11,20,11,39,1.70
2017,11,20,11,40,4.40
2017,11,20,11,41,4.20
2017,11,20,11,42,5.90
2017,11,20,11,43,4.90
2017,11,20,11,44,8.30
2017,11,20,11,45,6.40
2017,11,20,11,46,8.80
2017,11,20,11,47,8.60
2017,11,20,11,48,7.80
2017,11,20,11,49,8.90
2017,11,20,11,50,9.80
2017,11,20,11,51,7.00
2017,11,20,11,52,11.30
2017,11,20,11,53,10.40
2017,11,20,11,54,6.80
2017,11,20,11,55,7.90
2017,11,20,11,56,5.50
2017,11,20,11,57,5.30
2017,11,20,11,58,6.00
2017,11,20,11,59,5.60
2017,11,20,12,00,4.60
2017,11,20,12,01,2.10
2017,11,20,12,02,3.30
2017,11,20,12,03,5.60
2017,11,20,12,04,3.00
2017,11,20,12,05,6.00
2017,11,20,12,06,4.10
2017,11,20,12,07,6.40
2017,11,20,12,08,5.60
2017,11,20,12,09,3.20
2017,11,20,12,10,2.20
2017,11,20,12,11,4.70
2017,11,20,12,12,3.10
2017,11,20,12,13,3.20
2017,11,20,12,14,5.80
2017,11,20,12,15,7.10
2017,11,20,12,16,3.80
2017,11,20,12,17,5.10
2017,11,20,12,18,6.30
2017,11,20,12,19,3.70
2017,11,20,12,20,0.40
2017,11,20,12,21,3.20
2017,11,20,12,22,3.00
2017,11,20,12,23,5.40
2017,11,20,12,24,8.50
2017,11,20,12,25,8.70
2017,11,20,12,26,8.50
2017,11,20,12,27,6.70
2017,11,20,12,28,5.80
2017,11,20,12,29,6.90
2017,11,20,12,30,5.60
2017,11,20,12,31,6.20
2017,11,20,12,32,9.60
2017,11,20,12,33,8.60
2017,11,20,12,34,7.40
2017,11,20,12,35,8.10
2017,11,20,12,36,10.30
2017,11,20,12,37,10.90
2017,11,20,12,38,8.60
2017,11,20,12,39,6.90
2017,11,20,12,40,8.50
2017,11,20,12,41,5.70
2017,11,20,12,42,9.00
2017,11,20,12,43,6.50
2017,11,20,12,44,6.50
2017,11,20,12,45,14.00
2017,11,20,12,46,10.80
2017,11,20,12,47,8.60
2017,11,20,12,48,10.80
2017,11,20,12,49,8.80
2017,11,20,12,50,10.80
2017,11,20,12,51,11.50
2017,11,20,12,52,7.70
2017,11,20,12,53,7.80
2017,11,20,12,54,7.90
2017,11,20,12,55,5.60
2017,11,20,12,56,6.00
2017,11,20,12,57,7.80
2017,11,20,12,58,8.00
2017,11,20,12,59,6.30
2017,11,20,13,00,3.50
2017,11,20,13,01,4.20
2017,11,20,13,02,4.60
2017,11,20,13,03,6.20
2017,11,20,13,04,4.50
2017,11,20,13,05,6.70
2017,11,20,13,06,7.10
2017,11,20,13,07,9.20
2017,11,20,13,08,7.00
2017,11,20,13,09,10.30
2017,11,20,13,10,7.10
2017,11,20,13,11,7.40
2017,11,20,13,12,7.30
2017,11,20,13,13,8.80
2017,11,20,13,14,7.70
2017,11,20,13,15,8.00
2017,11,20,13,16,8.10
2017,11,20,13,17,9.60
2017,11,20,13,18,6.80
2017,11,20,13,19,10.80
2017,11,20,13,20,9.30
2017,11,20,13,21,5.60
2017,11,20,13,22,9.00
2017,11,20,13,23,5.20
2017,11,20,13,24,4.80
2017,11,20,13,25,6.70
2017,11,20,13,26,6.50
2017,11,20,13,27,10.70
2017,11,20,13,28,7.70
2017,11,20,13,29,9.40
2017,11,20,13,30,9.10
2017,11,20,13,31,9.50
2017,11,20,13,32,8.20
2017,11,20,13,33,8.70
2017,11,20,13,34,9.00
2017,11,20,13,35,6.00
2017,11,20,13,36,5.90
2017,11,20,13,37,6.60
2017,11,20,13,38,5.20
2017,11,20,13,39,7.80
2017,11,20,13,40,8.70
2017,11,20,13,41,10.30
2017,11,20,13,42,3.80
2017,11,20,13,43,7.90
2017,11,20,13,44,3.00
2017,11,20,13,45,6.60
2017,11,20,13,46,3.60
2017,11,20,13,47,7.80
2017,11,20,13,48,4.80
2017,11,20,13,49,3.40
2017,11,20,13,50,1.70
2017,11,20,13,51,8.80
2017,11,20,13,52,9.60
2017,11,20,13,53,2.10
2017,11,20,13,54,6.60
2017,11,20,13,55,5.10
2017,11,20,13,56,3.10
2017,11,20,13,57,5.10
2017,11,20,13,58,5.60
2017,11,20,13,59,8.90
2017,11,20,14,00,4.20
2017,11,20,14,01,4.00
2017,11,20,14,02,4.00
2017,11,20,14,03,8.20
2017,11,20,14,04,6.60
2017,11,20,14,05,3.10
2017,11,20,14,06,2.50
2017,11,20,14,07,7.90
2017,11,20,14,08,4.10
2017,11,20,14,09,4.00
2017,11,20,14,10,6.70
2017,11,20,14,11,10.30
2017,11,20,14,12,6.10
2017,11,20,14,13,4.80
2017,11,20,14,14,12.70
2017,11,20,14,15,11.60
2017,11,20,14,16,8.30
2017,11,20,14,17,12.50
2017,11,20,14,18,11.10
2017,11,20,14,19,6.20
2017,11,20,14,20,10.90
2017,11,20,14,21,4.10
2017,11,20,14,22,15.70
2017,11,20,14,23,8.60
2017,11,20,14,24,10.80
2017,11,20,14,25,9.30
2017,11,20,14,26,8.10
2017,11,20,14,27,6.90
2017,11,20,14,28,7.60
2017,11,20,14,29,7.90
2017,11,20,14,30,8.10
2017,11,20,14,31,7.90
2017,11,20,14,32,7.50
2017,11,20,14,33,7.30
2017,11,20,14,34,8.20
2017,11,20,14,35,4.10
2017,11,20,14,36,5.00
2017,11,20,14,37,4.90
2017,11,20,14,38,6.40
2017,11,20,14,39,6.10
2017,11,20,14,40,6.60
2017,11,20,14,41,3.20
2017,11,20,14,42,2.40
2017,11,20,14,43,7.10
2017,11,20,14,44,5.60
2017,11,20,14,45,5.70
2017,11,20,14,46,7.90
2017,11,20,14,47,6.70
2017,11,20,14,48,5.30
2017,11,20,14,49,7.50
2017,11,20,14,50,5.80
2017,11,20,14,51,3.10
2017,11,20,14,52,3.70
2017,11,20,14,53,4.20
2017,11,20,14,54,7.10
2017,11,20,14,55,3.30
2017,11,20,14,56,5.00
2017,11,20,14,57,6.40
2017,11,20,14,58,8.80
2017,11,20,14,59,10.00
2017,11,20,15,00,7.30
2017,11,20,15,01,2.90
2017,11,20,15,02,6.20
2017,11,20,15,03,2.50
2017,11,20,15,04,2.90
2017,11,20,15,05,8.60
2017,11,20,15,06,9.10
2017,11,20,15,07,9.60
2017,11,20,15,08,6.70
2017,11,20,15,09,8.60
2017,11,20,15,10,11.50
2017,11,20,15,11,9.70
2017,11,20,15,12,9.00
2017,11,20,15,13,9.80
2017,11,20,15,14,11.70
2017,11,20,15,15,7.20
2017,11,20,15,16,3.00
2017,11,20,15,17,9.40
2017,11,20,15,18,8.60
2017,11,20,15,19,7.10
2017,11,20,15,20,7.70
2017,11,20,15,21,2.70
2017,11,20,15,22,3.40
2017,11,20,15,23,3.90
2017,11,20,15,24,5.90
2017,11,20,15,25,3.70
2017,11,20,15,26,7.80
2017,11,20,15,27,7.10
2017,11,20,15,28,4.30
2017,11,20,15,29,4.70
2017,11,20,15,30,7.10
2017,11,20,15,31,4.70
2017,11,20,15,32,5.20
2017,11,20,15,33,4.00
2017,11,20,15,34,4.10
2017,11,20,15,35,8.90
2017,11,20,15,36,4.00
2017,11,20,15,37,8.20
2017,11,20,15,38,2.80
2017,11,20,15,39,4.00
2017,11,20,15,40,10.90
2017,11,20,15,41,14.00
2017,11,20,15,42,12.00
2017,11,20,15,43,7.00
2017,11,20,15,44,12.20
2017,11,20,15,45,11.10
2017,11,20,15,46,17.50
2017,11,20,15,47,14.00
2017,11,20,15,48,17.50
2017,11,20,15,49,12.50
2017,11,20,15,50,16.10
2017,11,20,15,51,6.40
2017,11,20,15,52,9.90
2017,11,20,15,53,7.20
2017,11,20,15,54,12.80
2017,11,20,15,55,14.30
2017,11,20,15,56,8.00
2017,11,20,15,57,10.80
2017,11,20,15,58,13.00
2017,11,20,15,59,13.20
2017,11,20,16,00,11.80
2017,11,20,16,01,6.30
2017,11,20,16,02,4.00
2017,11,20,16,03,3.40
2017,11,20,16,04,5.90
2017,11,20,16,05,8.00
2017,11,20,16,06,4.60
2017,11,20,16,07,3.10
2017,11,20,16,08,1.80
2017,11,20,16,09,3.80
2017,11,20,16,10,4.10
2017,11,20,16,11,2.60
2017,11,20,16,12,3.00
2017,11,20,16,13,2.10
2017,11,20,16,14,4.70
2017,11,20,16,15,2.10
2017,11,20,16,16,1.20
2017,11,20,16,17,1.20
2017,11,20,16,18,4.60
2017,11,20,16,19,3.10
2017,11,20,16,20,1.80
2017,11,20,16,21,4.00
2017,11,20,16,22,1.50
2017,11,20,16,23,1.40
2017,11,20,16,24,1.80
2017,11,20,16,25,2.50
2017,11,20,16,26,3.20
2017,11,20,16,27,3.20
2017,11,20,16,28,3.20
2017,11,20,16,29,3.20
2017,11,20,16,30,3.20
2017,11,20,16,31,3.20
2017,11,20,16,32,3.20
2017,11,20,16,33,3.20
2017,11,20,16,34,3.20
2017,11,20,16,35,3.20
